Time,TemperatureF,DewpointF,PressureIn,WindDirection,WindDirectionDegrees,WindSpeedMPH,WindSpeedGustMPH,Humidity,HourlyPrecipIn,Conditions,Clouds,dailyrainin,SoftwareType,DateUTC
2013-03-26 00:03:00,37.0,26.0,-100.00,NE,50,4.0,9.0,65,0.00,,,-99.99,,2013-03-26 04:03:00,
2013-03-26 00:13:00,37.0,26.0,-100.00,NE,45,2.0,7.0,65,0.00,,,-99.99,,2013-03-26 04:13:00,
2013-03-26 00:23:00,37.0,26.0,-100.00,NE,50,3.0,9.0,64,0.00,,,-99.99,,2013-03-26 04:23:00,
2013-03-26 00:33:00,37.0,26.0,-100.00,NE,55,3.0,7.0,63,0.00,,,-99.99,,2013-03-26 04:33:00,
2013-03-26 00:43:00,37.0,25.0,-100.00,ENE,60,5.0,10.0,62,0.00,,,-99.99,,2013-03-26 04:43:00,
2013-03-26 00:52:00,37.0,25.0,-100.00,ENE,60,6.0,12.0,61,0.00,,,-99.99,,2013-03-26 04:52:00,
2013-03-26 01:02:00,37.0,25.0,-100.00,NE,55,4.0,8.0,62,0.00,,,-99.99,,2013-03-26 05:02:00,
2013-03-26 01:12:00,37.0,25.0,-100.00,NE,50,6.0,14.0,60,0.00,,,-99.99,,2013-03-26 05:12:00,
2013-03-26 01:22:00,37.0,25.0,-100.00,ENE,65,4.0,11.0,60,0.00,,,-99.99,,2013-03-26 05:22:00,
2013-03-26 01:32:00,37.0,24.0,-100.00,NE,55,4.0,8.0,60,0.00,,,-99.99,,2013-03-26 05:32:00,
2013-03-26 01:42:00,37.0,25.0,-100.00,NNE,25,3.0,9.0,61,0.00,,,-99.99,,2013-03-26 05:42:00,
2013-03-26 01:52:00,37.0,24.0,-100.00,ENE,60,5.0,12.0,60,0.00,,,-99.99,,2013-03-26 05:52:00,
2013-03-26 02:02:00,37.0,24.0,-100.00,NE,55,5.0,12.0,60,0.00,,,-99.99,,2013-03-26 06:02:00,
2013-03-26 02:12:00,37.0,24.0,-100.00,NNE,30,3.0,12.0,60,0.00,,,-99.99,,2013-03-26 06:12:00,
2013-03-26 02:22:00,37.0,24.0,-100.00,ENE,60,3.0,11.0,60,0.00,,,-99.99,,2013-03-26 06:22:00,
2013-03-26 02:32:00,37.0,24.0,-100.00,ENE,70,6.0,11.0,59,0.00,,,-99.99,,2013-03-26 06:32:00,
2013-03-26 02:42:00,37.0,24.0,-100.00,ENE,60,3.0,10.0,60,0.00,,,-99.99,,2013-03-26 06:42:00,
2013-03-26 03:02:00,37.0,24.0,-100.00,ENE,70,6.0,11.0,60,0.00,,,-99.99,,2013-03-26 07:02:00,
2013-03-26 03:12:00,36.0,24.0,-100.00,ENE,65,6.0,11.0,61,0.00,,,-99.99,,2013-03-26 07:12:00,
2013-03-26 03:22:00,36.0,25.0,-100.00,ENE,65,4.0,12.0,62,0.00,,,-99.99,,2013-03-26 07:22:00,
2013-03-26 03:33:00,36.0,25.0,-100.00,ENE,60,5.0,9.0,62,0.00,,,-99.99,,2013-03-26 07:33:00,
2013-03-26 03:43:00,36.0,25.0,-100.00,NE,45,4.0,9.0,63,0.00,,,-99.99,,2013-03-26 07:43:00,
2013-03-26 03:52:00,36.0,25.0,-100.00,NE,35,3.0,11.0,64,0.00,,,-99.99,,2013-03-26 07:52:00,
2013-03-26 04:02:00,35.0,25.0,-100.00,NE,40,2.0,7.0,65,0.00,,,-99.99,,2013-03-26 08:02:00,
2013-03-26 04:13:00,35.0,25.0,-100.00,NE,35,2.0,6.0,66,0.00,,,-99.99,,2013-03-26 08:13:00,
2013-03-26 04:22:00,35.0,25.0,-100.00,NNE,25,1.0,5.0,66,0.00,,,-99.99,,2013-03-26 08:22:00,
2013-03-26 04:32:00,35.0,25.0,-100.00,NE,50,1.0,9.0,67,0.00,,,-99.99,,2013-03-26 08:32:00,
2013-03-26 04:42:00,34.0,25.0,-100.00,NNE,25,1.0,6.0,67,0.00,,,-99.99,,2013-03-26 08:42:00,
2013-03-26 04:52:00,34.0,25.0,-100.00,North,0,1.0,5.0,68,0.00,,,-99.99,,2013-03-26 08:52:00,
2013-03-26 05:02:00,34.0,25.0,-100.00,North,10,2.0,7.0,68,0.00,,,-99.99,,2013-03-26 09:02:00,
2013-03-26 05:12:00,34.0,25.0,-100.00,North,10,2.0,6.0,68,0.00,,,-99.99,,2013-03-26 09:12:00,
2013-03-26 05:22:00,34.0,25.0,-100.00,NNE,20,2.0,7.0,69,0.00,,,-99.99,,2013-03-26 09:22:00,
2013-03-26 05:33:00,35.0,25.0,-100.00,North,0,1.0,4.0,68,0.00,,,-99.99,,2013-03-26 09:33:00,
2013-03-26 05:43:00,34.0,25.0,-100.00,East,95,1.0,4.0,69,0.00,,,-99.99,,2013-03-26 09:43:00,
2013-03-26 05:52:00,35.0,25.0,-100.00,NNE,30,1.0,4.0,69,0.00,,,-99.99,,2013-03-26 09:52:00,
2013-03-26 06:03:00,35.0,25.0,-100.00,NNE,20,1.0,7.0,69,0.00,,,-99.99,,2013-03-26 10:03:00,
2013-03-26 06:12:00,35.0,26.0,-100.00,NNE,30,1.0,4.0,68,0.00,,,-99.99,,2013-03-26 10:12:00,
2013-03-26 06:22:00,35.0,26.0,-100.00,NNE,15,2.0,7.0,68,0.00,,,-99.99,,2013-03-26 10:22:00,
2013-03-26 06:33:00,35.0,25.0,-100.00,NNE,30,2.0,7.0,67,0.00,,,-99.99,,2013-03-26 10:33:00,
2013-03-26 06:42:00,35.0,25.0,-100.00,ENE,60,3.0,6.0,66,0.00,,,-99.99,,2013-03-26 10:42:00,
2013-03-26 06:52:00,35.0,25.0,-100.00,ESE,120,2.0,6.0,66,0.00,,,-99.99,,2013-03-26 10:52:00,
2013-03-26 07:03:00,35.0,25.0,-100.00,ENE,70,2.0,4.0,66,0.00,,,-99.99,,2013-03-26 11:03:00,
2013-03-26 07:12:00,35.0,25.0,-100.00,NNE,25,2.0,4.0,67,0.00,,,-99.99,,2013-03-26 11:12:00,
2013-03-26 07:22:00,35.0,25.0,-100.00,East,85,2.0,7.0,66,0.00,,,-99.99,,2013-03-26 11:22:00,
2013-03-26 07:32:00,36.0,25.0,-100.00,NE,40,2.0,6.0,65,0.00,,,-99.99,,2013-03-26 11:32:00,
2013-03-26 07:42:00,36.0,25.0,-100.00,NE,45,2.0,4.0,64,0.00,,,-99.99,,2013-03-26 11:42:00,
2013-03-26 07:52:00,36.0,25.0,-100.00,NE,55,1.0,9.0,63,0.00,,,-99.99,,2013-03-26 11:52:00,
2013-03-26 08:03:00,36.0,24.0,-100.00,NE,50,2.0,6.0,61,0.00,,,-99.99,,2013-03-26 12:03:00,
2013-03-26 08:12:00,36.0,24.0,-100.00,ENE,60,4.0,7.0,59,0.00,,,-99.99,,2013-03-26 12:12:00,
2013-03-26 08:22:00,36.0,23.0,-100.00,NE,55,4.0,9.0,57,0.00,,,-99.99,,2013-03-26 12:22:00,
2013-03-26 08:32:00,37.0,22.0,-100.00,NE,55,6.0,14.0,53,0.00,,,-99.99,,2013-03-26 12:32:00,
2013-03-26 08:42:00,38.0,21.0,-100.00,NE,35,4.0,13.0,50,0.00,,,-99.99,,2013-03-26 12:42:00,
2013-03-26 08:52:00,38.0,20.0,-100.00,ENE,65,8.0,14.0,47,0.00,,,-99.99,,2013-03-26 12:52:00,
2013-03-26 09:03:00,38.0,20.0,-100.00,NE,35,4.0,14.0,47,0.00,,,-99.99,,2013-03-26 13:03:00,
2013-03-26 09:12:00,38.0,19.0,-100.00,NE,55,8.0,16.0,44,0.00,,,-99.99,,2013-03-26 13:12:00,
2013-03-26 09:23:00,38.0,19.0,-100.00,ENE,70,7.0,15.0,44,0.00,,,-99.99,,2013-03-26 13:23:00,
2013-03-26 09:32:00,39.0,19.0,-100.00,ENE,60,6.0,14.0,43,0.00,,,-99.99,,2013-03-26 13:32:00,
2013-03-26 09:42:00,39.0,19.0,-100.00,NE,45,7.0,14.0,44,0.00,,,-99.99,,2013-03-26 13:42:00,
2013-03-26 09:52:00,39.0,19.0,-100.00,NNE,30,4.0,12.0,44,0.00,,,-99.99,,2013-03-26 13:52:00,
2013-03-26 10:02:00,39.0,18.0,-100.00,ENE,60,6.0,13.0,41,0.00,,,-99.99,,2013-03-26 14:02:00,
2013-03-26 10:12:00,40.0,18.0,-100.00,NE,55,6.0,15.0,42,0.00,,,-99.99,,2013-03-26 14:12:00,
2013-03-26 10:23:00,40.0,18.0,-100.00,ENE,60,5.0,14.0,40,0.00,,,-99.99,,2013-03-26 14:23:00,
2013-03-26 10:33:00,40.0,18.0,-100.00,East,90,4.0,12.0,40,0.00,,,-99.99,,2013-03-26 14:33:00,
2013-03-26 10:42:00,42.0,18.0,-100.00,ENE,70,3.0,9.0,37,0.00,,,-99.99,,2013-03-26 14:42:00,
2013-03-26 10:52:00,42.0,18.0,-100.00,ENE,65,6.0,11.0,37,0.00,,,-99.99,,2013-03-26 14:52:00,
2013-03-26 11:02:00,42.0,18.0,-100.00,NE,55,4.0,11.0,37,0.00,,,-99.99,,2013-03-26 15:02:00,
2013-03-26 11:12:00,43.0,19.0,-100.00,NNW,335,9.0,14.0,38,0.00,,,-99.99,,2013-03-26 15:12:00,
2013-03-26 11:22:00,42.0,18.0,-100.00,ENE,75,7.0,11.0,36,0.00,,,-99.99,,2013-03-26 15:22:00,
2013-03-26 11:33:00,44.0,19.0,-100.00,North,350,5.0,13.0,35,0.00,,,-99.99,,2013-03-26 15:33:00,
2013-03-26 11:43:00,45.0,19.0,-100.00,NNW,340,7.0,9.0,35,0.00,,,-99.99,,2013-03-26 15:43:00,
2013-03-26 11:52:00,44.0,18.0,-100.00,NNW,330,6.0,12.0,34,0.00,,,-99.99,,2013-03-26 15:52:00,
2013-03-26 12:03:00,45.0,18.0,-100.00,NE,35,2.0,9.0,33,0.00,,,-99.99,,2013-03-26 16:03:00,
2013-03-26 12:13:00,45.0,18.0,-100.00,North,355,6.0,12.0,33,0.00,,,-99.99,,2013-03-26 16:13:00,
2013-03-26 12:23:00,45.0,21.0,-100.00,North,0,2.0,13.0,39,0.00,,,-99.99,,2013-03-26 16:23:00,
2013-03-26 12:33:00,45.0,20.0,-100.00,NW,315,10.0,16.0,35,0.00,,,-99.99,,2013-03-26 16:33:00,
2013-03-26 12:42:00,46.0,19.0,-100.00,NNW,330,4.0,15.0,34,0.00,,,-99.99,,2013-03-26 16:42:00,
2013-03-26 12:53:00,45.0,17.0,-100.00,NNW,330,9.0,16.0,31,0.00,,,-99.99,,2013-03-26 16:53:00,
2013-03-26 13:03:00,46.0,17.0,-100.00,NW,315,6.0,16.0,30,0.00,,,-99.99,,2013-03-26 17:03:00,
2013-03-26 13:12:00,47.0,18.0,-100.00,WNW,285,4.0,14.0,31,0.00,,,-99.99,,2013-03-26 17:12:00,
2013-03-26 13:23:00,47.0,18.0,-100.00,NNW,335,7.0,16.0,31,0.00,,,-99.99,,2013-03-26 17:23:00,
2013-03-26 13:33:00,46.0,18.0,-100.00,NNW,335,6.0,12.0,32,0.00,,,-99.99,,2013-03-26 17:33:00,
2013-03-26 13:42:00,46.0,17.0,-100.00,NNW,335,6.0,11.0,30,0.00,,,-99.99,,2013-03-26 17:42:00,
2013-03-26 13:52:00,45.0,19.0,-100.00,NNW,330,9.0,17.0,34,0.00,,,-99.99,,2013-03-26 17:52:00,
2013-03-26 14:03:00,46.0,18.0,-100.00,ENE,65,1.0,12.0,32,0.00,,,-99.99,,2013-03-26 18:03:00,
2013-03-26 14:12:00,47.0,16.0,-100.00,NW,325,7.0,13.0,28,0.00,,,-99.99,,2013-03-26 18:12:00,
2013-03-26 14:23:00,47.0,17.0,-100.00,NNW,340,8.0,16.0,29,0.00,,,-99.99,,2013-03-26 18:23:00,
2013-03-26 14:34:00,48.0,18.0,-100.00,North,5,6.0,12.0,29,0.00,,,-99.99,,2013-03-26 18:34:00,
2013-03-26 14:42:00,47.0,17.0,-100.00,NW,310,7.0,13.0,29,0.00,,,-99.99,,2013-03-26 18:42:00,
2013-03-26 14:52:00,49.0,17.0,-100.00,NNW,330,7.0,14.0,26,0.00,,,-99.99,,2013-03-26 18:52:00,
2013-03-26 15:03:00,49.0,17.0,-100.00,NNW,340,6.0,17.0,27,0.00,,,-99.99,,2013-03-26 19:03:00,
2013-03-26 15:12:00,49.0,17.0,-100.00,NNW,335,11.0,15.0,27,0.00,,,-99.99,,2013-03-26 19:12:00,
2013-03-26 15:22:00,49.0,16.0,-100.00,NNW,335,11.0,19.0,26,0.00,,,-99.99,,2013-03-26 19:22:00,
2013-03-26 15:33:00,49.0,16.0,-100.00,NNW,345,7.0,14.0,26,0.00,,,-99.99,,2013-03-26 19:33:00,
2013-03-26 15:42:00,50.0,17.0,-100.00,NNW,340,9.0,15.0,26,0.00,,,-99.99,,2013-03-26 19:42:00,
2013-03-26 15:53:00,49.0,17.0,-100.00,NE,55,3.0,11.0,27,0.00,,,-99.99,,2013-03-26 19:53:00,
2013-03-26 16:02:00,49.0,16.0,-100.00,NE,55,7.0,12.0,26,0.00,,,-99.99,,2013-03-26 20:02:00,
2013-03-26 16:13:00,49.0,17.0,-100.00,NW,305,3.0,12.0,28,0.00,,,-99.99,,2013-03-26 20:13:00,
2013-03-26 16:23:00,50.0,15.0,-100.00,NW,315,7.0,14.0,24,0.00,,,-99.99,,2013-03-26 20:23:00,
2013-03-26 16:32:00,49.0,16.0,-100.00,North,350,5.0,13.0,25,0.00,,,-99.99,,2013-03-26 20:32:00,
2013-03-26 16:43:00,51.0,17.0,-100.00,NW,320,4.0,12.0,25,0.00,,,-99.99,,2013-03-26 20:43:00,
2013-03-26 16:52:00,51.0,17.0,-100.00,NNE,20,4.0,13.0,24,0.00,,,-99.99,,2013-03-26 20:52:00,
2013-03-26 17:02:00,51.0,17.0,-100.00,ENE,60,4.0,11.0,25,0.00,,,-99.99,,2013-03-26 21:02:00,
2013-03-26 17:13:00,51.0,17.0,-100.00,ENE,60,4.0,11.0,25,0.00,,,-99.99,,2013-03-26 21:13:00,
2013-03-26 17:22:00,50.0,16.0,-100.00,ENE,60,7.0,18.0,25,0.00,,,-99.99,,2013-03-26 21:22:00,
2013-03-26 17:33:00,50.0,16.0,-100.00,NNE,30,4.0,11.0,24,0.00,,,-99.99,,2013-03-26 21:33:00,
2013-03-26 17:43:00,50.0,16.0,-100.00,NE,50,6.0,12.0,25,0.00,,,-99.99,,2013-03-26 21:43:00,
2013-03-26 17:52:00,50.0,17.0,-100.00,NNW,330,11.0,17.0,25,0.00,,,-99.99,,2013-03-26 21:52:00,
2013-03-26 18:02:00,50.0,17.0,-100.00,North,350,6.0,14.0,26,0.00,,,-99.99,,2013-03-26 22:02:00,
2013-03-26 18:12:00,50.0,17.0,-100.00,NNW,330,4.0,15.0,25,0.00,,,-99.99,,2013-03-26 22:12:00,
2013-03-26 18:22:00,49.0,16.0,-100.00,NNW,330,7.0,18.0,26,0.00,,,-99.99,,2013-03-26 22:22:00,
2013-03-26 18:33:00,49.0,16.0,-100.00,NW,315,6.0,12.0,26,0.00,,,-99.99,,2013-03-26 22:33:00,
2013-03-26 18:42:00,49.0,16.0,-100.00,NNW,340,3.0,13.0,27,0.00,,,-99.99,,2013-03-26 22:42:00,
2013-03-26 18:52:00,47.0,17.0,-100.00,NW,325,6.0,12.0,28,0.00,,,-99.99,,2013-03-26 22:52:00,
2013-03-26 19:01:00,47.0,16.0,-100.00,North,10,2.0,7.0,28,0.00,,,-99.99,,2013-03-26 23:01:00,
2013-03-26 19:10:00,47.0,18.0,-100.00,ENE,70,1.0,5.0,31,0.00,,,-99.99,,2013-03-26 23:10:00,
2013-03-26 19:22:00,46.0,17.0,-100.00,NNW,335,2.0,6.0,30,0.00,,,-99.99,,2013-03-26 23:22:00,
2013-03-26 19:32:00,46.0,17.0,-100.00,NW,305,3.0,9.0,30,0.00,,,-99.99,,2013-03-26 23:32:00,
2013-03-26 19:42:00,46.0,17.0,-100.00,NW,315,3.0,7.0,30,0.00,,,-99.99,,2013-03-26 23:42:00,
2013-03-26 19:52:00,45.0,17.0,-100.00,NW,315,2.0,4.0,31,0.00,,,-99.99,,2013-03-26 23:52:00,
2013-03-26 20:02:00,44.0,17.0,-100.00,NW,305,2.0,4.0,32,0.00,,,-99.99,,2013-03-27 00:02:00,
2013-03-26 20:12:00,44.0,17.0,-100.00,NW,325,2.0,6.0,33,0.00,,,-99.99,,2013-03-27 00:12:00,
2013-03-26 20:22:00,43.0,17.0,-100.00,NW,325,4.0,6.0,33,0.00,,,-99.99,,2013-03-27 00:22:00,
2013-03-26 20:33:00,43.0,17.0,-100.00,NW,320,3.0,6.0,35,0.00,,,-99.99,,2013-03-27 00:33:00,
2013-03-26 20:42:00,42.0,17.0,-100.00,NW,320,4.0,6.0,35,0.00,,,-99.99,,2013-03-27 00:42:00,
2013-03-26 20:52:00,42.0,17.0,-100.00,NW,325,4.0,7.0,35,0.00,,,-99.99,,2013-03-27 00:52:00,
2013-03-26 21:02:00,42.0,17.0,-100.00,NW,325,6.0,9.0,35,0.00,,,-99.99,,2013-03-27 01:02:00,
2013-03-26 21:12:00,42.0,17.0,-100.00,NW,325,4.0,8.0,36,0.00,,,-99.99,,2013-03-27 01:12:00,
2013-03-26 21:23:00,42.0,17.0,-100.00,NNW,330,6.0,7.0,36,0.00,,,-99.99,,2013-03-27 01:23:00,
2013-03-26 21:33:00,41.0,17.0,-100.00,NW,320,5.0,9.0,37,0.00,,,-99.99,,2013-03-27 01:33:00,
2013-03-26 21:42:00,41.0,17.0,-100.00,NW,325,6.0,10.0,37,0.00,,,-99.99,,2013-03-27 01:42:00,
2013-03-26 21:52:00,41.0,18.0,-100.00,NNW,335,5.0,9.0,38,0.00,,,-99.99,,2013-03-27 01:52:00,
2013-03-26 22:03:00,40.0,18.0,-100.00,NNW,335,6.0,9.0,39,0.00,,,-99.99,,2013-03-27 02:03:00,
2013-03-26 22:12:00,40.0,18.0,-100.00,NNW,335,6.0,9.0,40,0.00,,,-99.99,,2013-03-27 02:12:00,
2013-03-26 22:22:00,40.0,19.0,-100.00,NNW,340,4.0,9.0,42,0.00,,,-99.99,,2013-03-27 02:22:00,
2013-03-26 22:32:00,39.0,20.0,-100.00,NNW,330,2.0,7.0,45,0.00,,,-99.99,,2013-03-27 02:32:00,
2013-03-26 22:42:00,39.0,20.0,-100.00,NW,310,1.0,6.0,45,0.00,,,-99.99,,2013-03-27 02:42:00,
2013-03-26 22:52:00,39.0,19.0,-100.00,North,0,2.0,5.0,45,0.00,,,-99.99,,2013-03-27 02:52:00,
2013-03-26 23:02:00,39.0,19.0,-100.00,NW,320,3.0,6.0,45,0.00,,,-99.99,,2013-03-27 03:02:00,
2013-03-26 23:12:00,38.0,19.0,-100.00,NNW,335,2.0,9.0,45,0.00,,,-99.99,,2013-03-27 03:12:00,
2013-03-26 23:22:00,38.0,20.0,-100.00,NNW,345,2.0,6.0,46,0.00,,,-99.99,,2013-03-27 03:22:00,
2013-03-26 23:33:00,38.0,20.0,-100.00,NNW,345,2.0,7.0,47,0.00,,,-99.99,,2013-03-27 03:33:00,
2013-03-26 23:42:00,38.0,20.0,-100.00,NNW,335,2.0,7.0,48,0.00,,,-99.99,,2013-03-27 03:42:00,
2013-03-26 23:53:00,37.0,20.0,-100.00,West,270,1.0,6.0,50,0.00,,,-99.99,,2013-03-27 03:53:00,